Weather History for Gunnison, CO

Change the Weather History Date:

Thursday, February 21, 2013

  Actual Average Record
Temperature  
Mean Temperature 20 °F -  
Max Temperature 30 °F 30 °F 46 °F (2007)
Min Temperature 10 °F 7 °F -7 °F (2009)
Degree Days  
Heating Degree Days 45    
Moisture  
Dew Point 15 °F    
Average Humidity 72    
Maximum Humidity 93    
Minimum Humidity 59    
Precipitation  
Precipitation 0.00 in - - ()
Sea Level Pressure  
Sea Level Pressure 29.74 in    
Wind  
Wind Speed 8 mph (West)    
Max Wind Speed 20 mph    
Max Gust Speed 25 mph    
Visibility 10 miles    
Events      
Averages and records for this station are not official NWS values.
T = Trace of Precipitation, MM = Missing Value Source: NWS Daily Summary

Daily Weather History Graph

Daily Weather History Graph

Search for Another Location

Airport:

Trip Planner

Search our weather history database for the weather conditions in past years. The results will help you decide how hot, cold, wet, or windy it might be!

Date:

Astronomy

Feb. 21, 2013 Rise Set
Actual Time 6:50 AM MST 5:52 PM MST
Civil Twilight 6:23 AM MST 6:19 PM MST
Nautical Twilight 5:52 AM MST 6:50 PM MST
Astronomical Twilight 5:22 AM MST 7:21 PM MST
Moon 2:11 PM MST (2/21) 3:55 AM MST (2/21)
Length of Visible Light 11h 55m
Length of Day
11h 02m
Waxing Gibbous, 84% of the Moon is Illuminated
Feb 21
Waxing Gibbous
Feb 25
Full
Mar 4
Last Quarter
Mar 11
New
Mar 19
First Quarter

Hourly Weather History & Observations

Time (MST) Temp. Windchill Dew Point Humidity Pressure Visibility Wind Dir Wind Speed Gust Speed Precip Events Conditions
7:15 AM 19.4 °F 14.3 °F 17.6 °F 93% 29.62 in 10.0 mi North 3.5 mph - N/A   Overcast
7:35 AM 19.4 °F 11.5 °F 17.6 °F 93% 29.63 in 10.0 mi North 5.8 mph - N/A   Overcast
7:55 AM 21.2 °F 13.6 °F 17.6 °F 86% 29.64 in 10.0 mi NNW 5.8 mph - N/A   Overcast
8:15 AM 21.2 °F 14.9 °F 17.6 °F 86% 29.65 in 10.0 mi NNW 4.6 mph - N/A   Overcast
8:35 AM 21.2 °F 14.9 °F 19.4 °F 93% 29.66 in 10.0 mi North 4.6 mph - N/A   Overcast
8:55 AM 21.2 °F 16.4 °F 19.4 °F 93% 29.66 in 10.0 mi North 3.5 mph - N/A   Overcast
9:15 AM 24.8 °F - 21.2 °F 86% 29.67 in 6.0 mi Calm Calm - N/A   Overcast
9:35 AM 26.6 °F 22.6 °F 19.4 °F 74% 29.67 in 6.0 mi East 3.5 mph - N/A   Overcast
10:15 AM 26.6 °F - 19.4 °F 74% 29.68 in 3.0 mi Calm Calm - N/A   Overcast
10:55 AM 26.6 °F 16.8 °F 19.4 °F 74% 29.69 in 10.0 mi SW 10.4 mph - N/A   Overcast
11:15 AM 26.6 °F 16.8 °F 19.4 °F 74% 29.70 in 8.0 mi West 10.4 mph 16.1 mph N/A   Overcast
11:35 AM 28.4 °F 17.5 °F 21.2 °F 74% 29.70 in 10.0 mi SW 13.8 mph 18.4 mph N/A   Overcast
11:55 AM 28.4 °F 17.0 °F 19.4 °F 69% 29.70 in 10.0 mi WSW 15.0 mph - N/A   Mostly Cloudy
12:15 PM 28.4 °F 19.1 °F 17.6 °F 64% 29.70 in 10.0 mi SW 10.4 mph 18.4 mph N/A   Mostly Cloudy
12:35 PM 28.4 °F 17.5 °F 17.6 °F 64% 29.70 in 10.0 mi SW 13.8 mph 18.4 mph N/A   Overcast
12:55 PM 28.4 °F 18.5 °F 17.6 °F 64% 29.70 in 10.0 mi WSW 11.5 mph 18.4 mph N/A   Scattered Clouds
1:15 PM 26.6 °F 13.8 °F 15.8 °F 64% 29.69 in 10.0 mi WSW 17.3 mph 21.9 mph N/A   Mostly Cloudy
1:35 PM 28.4 °F 17.5 °F 17.6 °F 64% 29.69 in 10.0 mi SW 13.8 mph 21.9 mph N/A   Scattered Clouds
1:55 PM 28.4 °F 18.0 °F 17.6 °F 64% 29.69 in 10.0 mi SW 12.7 mph 19.6 mph N/A   Clear
2:15 PM 28.4 °F 18.5 °F 17.6 °F 64% 29.70 in 10.0 mi SW 11.5 mph - N/A   Clear
2:55 PM 28.4 °F 16.2 °F 19.4 °F 69% 29.70 in 10.0 mi WSW 17.3 mph 23.0 mph N/A   Scattered Clouds
3:15 PM 28.4 °F 15.4 °F 17.6 °F 64% 29.70 in 10.0 mi SW 19.6 mph 25.3 mph N/A   Mostly Cloudy
3:35 PM 28.4 °F 17.0 °F 17.6 °F 64% 29.71 in 10.0 mi WSW 15.0 mph 25.3 mph N/A   Mostly Cloudy
3:55 PM 30.2 °F 18.9 °F 17.6 °F 60% 29.71 in 10.0 mi WSW 16.1 mph 23.0 mph N/A   Overcast
4:15 PM 28.4 °F 16.6 °F 17.6 °F 64% 29.71 in 10.0 mi WSW 16.1 mph 24.2 mph N/A   Scattered Clouds
4:55 PM 28.4 °F 17.0 °F 15.8 °F 59% 29.72 in 10.0 mi SW 15.0 mph 20.7 mph N/A   Scattered Clouds
5:15 PM 28.4 °F 18.5 °F 15.8 °F 59% 29.73 in 10.0 mi WSW 11.5 mph 19.6 mph N/A   Mostly Cloudy
5:35 PM 26.6 °F 15.2 °F 15.8 °F 64% 29.74 in 10.0 mi WSW 13.8 mph - N/A   Partly Cloudy
5:55 PM 26.6 °F 18.2 °F 15.8 °F 64% 29.74 in 10.0 mi West 8.1 mph - N/A   Clear
6:15 PM 24.8 °F 16.9 °F 12.2 °F 59% 29.76 in 10.0 mi WNW 6.9 mph - N/A   Clear
6:35 PM 23.0 °F 15.8 °F 14.0 °F 68% 29.77 in 10.0 mi ENE 5.8 mph - N/A   Clear
6:55 PM 24.8 °F 19.1 °F 15.8 °F 69% 29.78 in 10.0 mi SE 4.6 mph - N/A   Scattered Clouds
7:15 PM 24.8 °F 20.5 °F 17.6 °F 74% 29.79 in 10.0 mi SSW 3.5 mph - N/A   Scattered Clouds
7:35 PM 21.2 °F 11.7 °F 12.2 °F 68% 29.80 in 10.0 mi SSE 8.1 mph - N/A   Partly Cloudy
7:55 PM 21.2 °F 16.4 °F 12.2 °F 68% 29.81 in 10.0 mi South 3.5 mph - N/A   Mostly Cloudy
8:15 PM 19.4 °F 14.3 °F 10.4 °F 68% 29.82 in 10.0 mi SSE 3.5 mph - N/A   Scattered Clouds
8:35 PM 17.6 °F 6.4 °F 6.8 °F 63% 29.82 in 10.0 mi NNW 9.2 mph - N/A   Partly Cloudy
8:55 PM 15.8 °F 4.2 °F 12.2 °F 86% 29.83 in 10.0 mi NNW 9.2 mph - N/A   Clear
9:15 PM 15.8 °F 4.2 °F 5.0 °F 62% 29.84 in 10.0 mi NNW 9.2 mph - N/A   Clear
9:35 PM 15.8 °F 6.1 °F 6.8 °F 68% 29.85 in 10.0 mi NNW 6.9 mph - N/A   Partly Cloudy
9:55 PM 14.0 °F 6.5 °F 8.6 °F 79% 29.85 in 10.0 mi North 4.6 mph - N/A   Scattered Clouds
10:15 PM 14.0 °F 6.5 °F 8.6 °F 79% 29.85 in 10.0 mi North 4.6 mph - N/A   Mostly Cloudy
10:35 PM 12.2 °F 4.3 °F 5.0 °F 73% 29.85 in 10.0 mi North 4.6 mph - N/A   Scattered Clouds
10:55 PM 10.4 °F - 5.0 °F 79% 29.85 in 10.0 mi Calm Calm - N/A   Clear
11:15 PM 10.4 °F - 6.8 °F 85% 29.85 in 10.0 mi Calm Calm - N/A   Clear
11:55 PM 10.4 °F - 6.8 °F 85% 29.85 in 10.0 mi Calm Calm - N/A   Clear